Regional Weather Roundup
Issued by NWS State College, PA

Home | Current Version | Previous Version | Text Only | Print | Product List | Glossary On
Versions: 1 2 3 4 5 6 7 8 9 10 11 12 13 14 15 16 17 18 19 20 21 22 23 24 25 26 27 28 29 30 31 32 33 34 35 36 37 38 39 40 41 42 43 44 45 46 47 48 49 50
000
ASUS41 KCTP 190710
RWRCTP

REGIONAL WEATHER ROUNDUP
NATIONAL WEATHER SERVICE STATE COLLEGE PA
200 AM EST FRI JAN 19 2018

Note: "fair" indicates few or no clouds below 12,000 feet with no
significant weather and/or obstructions to visibility.

* = STATION THAT DOES NOT REPORT PRECIPITATION /E.G. RAIN...SNOW...ETC/
    THUNDER OR FOG.

PAZ002>004-007>009-013>016-020>023-029>032-190800-
WESTERN PENNSYLVANIA

CITY           SKY/WX    TMP DP  RH WIND       PRES   REMARKS
ERIE           FAIR      26  12  55 S16       30.00F WCI  14
MEADVILLE      FAIR      22  11  62 SW10      30.01R WCI  11
FRANKLIN*      FAIR      19  11  70 SW12      30.01R WCI   7
NEW CASTLE     FAIR      21  12  68 VRB6      30.07S WCI  13
BEAVER COUNTY  NOT AVBL
BUTLER*        FAIR      21  11  65 SW12      30.07S WCI   9
PITTSBURGH INT FAIR      24  10  55 SW9       30.08S WCI  14
PITTSBURGH     FAIR      23   8  52 SW13      30.08S WCI  11
INDIANA*       CLEAR     23  12  63 W16       30.09S WCI  10
LATROBE        FAIR      25  10  54 SW17      30.11R WCI  11
WASHINGTON CO* FAIR      23  11  60 SW15      30.13F WCI  10
$$

PAZ004>006-010>012-017>019-024>028-033>037-041-042-045-046-049>053-190800-
CENTRAL PENNSYLVANIA

CITY           SKY/WX    TMP DP  RH WIND       PRES   REMARKS
BRADFORD       FAIR      18  10  71 SW9       29.93S WCI   7
DUBOIS         FAIR      19   8  62 SW16G24   29.98S WCI   4
CLEARFIELD     FAIR      22  10  60 SW12      30.00F WCI  10
JOHNSTOWN      FAIR      24   9  52 SW18      29.98F WCI  10
ALTOONA        FAIR      27  12  53 W14       30.02S
STATE COLLEGE  FAIR      26  12  56 SW13      30.00F WCI  14
WILLIAMSPORT   FAIR       9   7  92 CALM      30.01F
SELINSGROVE    FAIR       6   4  91 CALM      30.04S
FT INDIANTOWN  FAIR      13  11  95 CALM      30.03F
CAPITAL CITY   FAIR      21  13  71 SW3       30.05S
HARRISBURG     FAIR      17  13  84 E3        30.05S
YORK           FAIR      14  11  87 CALM      30.05S
$$

PAZ038>040-043-044-047-048-054-055-060>062-067>071-190800-
EASTERN PENNSYLVANIA

CITY           SKY/WX    TMP DP  RH WIND       PRES   REMARKS
SCRANTON       FAIR      18  11  74 SW3       29.98S
MOUNT POCONO   FAIR      16  10  77 W20       29.89F WCI  -1
ALLENTOWN      FAIR      11   5  77 NW3       30.03S
QUAKERTOWN*    FAIR      10   7  85 CALM      30.04S
READING        FAIR      17  13  84 SW3       30.03F
LANCASTER      FAIR      20  13  74 CALM      30.05S
COATESVILLE    FAIR      25  14  63 VRB3      30.05S
POTTSTOWN      FAIR      15   9  76 CALM      30.06F
BLUE BELL      FAIR      18  14  86 CALM      30.07S
DOYLESTOWN     FAIR      17  11  77 CALM      30.03F
WILLOW GROVE   NOT AVBL
NORTH PHILA    FAIR      23  15  71 CALM      30.08F
PHILADELPHIA   FAIR      24  15  68 CALM      30.08F
$$




USA.gov is the U.S. government's official web portal to all federal, state and local government web resources and services.